CAPE
2348 2543 2575 2428 2244 2496 2600 3221 3616 3832 4012 4011 4120 3368 2915 2222 2013 1826 1113 371 0 0 0 0 0 0 0 0 0 0 0 0 0 0 0 0 0 6 0 0 0 0 0
2586 2765 2500 2487 2384 2574 2892 3001 3257 3633 3997 4067 4105 3128 2480 2124 1827 1599 1134 59 0 0 0 0 0 0 0 15 0 1 0 0 0 0 0 0 0 0 0 0 0 0 0
2730 2804 2610 2681 2631 2639 2816 3020 3421 3699 3748 3690 3855 3237 2493 2069 1723 1334 515 0 0 0 0 0 0 0 1 0 0 0 0 0 0 0 0 0 0 0 0 0 0 0 0
2546 2662 2927 2472 2591 2686 2926 3264 3492 4029 3900 3975 3586 2837 2427 2063 1470 871 103 0 0 0 0 0 0 0 0 0 0 0 0 0 0 0 0 0 0 0 0 0 0 0 0
2536 2658 2637 2799 2932 2869 3072 3368 3779 3831 3772 3712 3057 2376 2196 1568 760 542 63 0 0 0 0 0 0 0 0 0 0 0 0 0 0 0 0 0 0 0 0 0 0 0 0
2466 2570 2757 3043 3060 3106 3437 3319 3954 3863 3454 3393 2747 2258 1672 819 0 0 3 0 0 0 0 0 0 0 0 0 0 0 0 0 0 0 0 0 0 0 0 0 0 0 0
2543 2601 2911 3280 3127 3365 3341 3788 3650 3740 3686 3501 2670 1930 863 153 0 0 0 11 0 0 0 0 0 0 0 0 0 0 0 0 0 0 0 0 0 0 0 0 0 0 0
2460 2799 3035 3269 3409 3558 3598 3793 3792 3812 3455 3128 2138 1373 620 30 0 0 0 0 0 0 0 0 0 0 0 0 0 0 0 0 0 0 0 0 0 0 0 0 0 0 0
2174 2879 3129 3293 3675 3654 3695 3671 3860 4108 3362 2635 1555 957 381 0 0 0 0 0 0 0 0 0 0 0 0 0 0 0 0 0 0 0 0 0 0 0 0 0 0 0 0
2557 2602 3308 3482 3765 3656 3856 3828 4055 4066 2994 1736 1120 551 94 0 0 0 0 0 0 0 0 0 0 0 0 0 0 0 0 0 0 0 0 0 0 5 0 0 0 16 0
2734 3128 3428 3717 3699 3821 3964 4151 4315 2853 1744 1089 448 167 62 0 0 0 0 0 0 0 0 0 0 0 0 0 0 0 0 0 0 0 0 0 0 0 0 11 10 12 1
3416 3414 3864 3974 3937 3968 4304 4405 3273 2016 1421 924 292 86 5 0 0 0 0 0 0 0 0 0 0 0 0 0 0 0 0 0 0 0 0 0 0 0 0 0 11 22 16
3847 4023 4035 4088 4222 4099 4503 4298 2508 2147 809 340 84 15 1 0 0 0 0 0 0 0 0 0 0 0 0 0 0 0 0 0 0 0 0 0 0 0 0 0 0 0 5
4104 4275 4146 4288 4336 4157 4462 3323 2401 1450 518 133 15 0 2 0 0 0 0 0 0 0 0 0 0 0 0 0 0 0 0 0 0 0 0 0 0 0 0 0 0 0 1
4369 4200 4170 4326 3986 4059 4098 2879 2263 1258 424 198 36 11 23 0 0 0 0 0 0 0 0 0 0 0 0 0 0 0 0 0 0 0 0 0 0 0 0 0 2 0 0
4322 4116 4108 4196 3984 3876 2800 49 0 515 293 23 8 65 30 3 0 0 0 0 0 0 0 0 0 0 0 0 0 0 0 0 0 0 0 0 0 0 0 0 1 5 0
4220 4020 3974 3579 3783 2628 2095 1452 1006 0 0 0 0 0 1 0 0 0 0 0 0 0 0 0 0 0 0 0 0 0 0 0 0 0 0 0 0 0 0 0 0 1 0
4265 3503 3816 3336 3465 2207 2017 1568 968 12 4 0 0 0 0 0 0 0 0 0 0 0 0 0 0 0 0 0 0 0 0 0 0 0 0 0 0 0 0 0 0 0 0
4246 3746 3369 3096 2878 2262 2276 1254 419 247 191 0 0 0 0 0 0 0 0 0 0 0 0 0 0 0 0 0 0 0 0 0 0 0 0 0 0 0 0 0 0 0 2
3731 3120 2947 2897 2201 1915 1939 1224 610 361 185 0 0 0 0 0 0 0 0 0 0 0 0 0 0 0 0 0 0 0 0 0 0 0 0 0 0 0 0 0 0 0 2
3333 2910 2416 2383 1917 1707 1439 1052 747 243 16 0 0 0 0 0 0 0 0 0 0 0 0 0 0 0 0 0 0 0 0 0 0 0 0 0 0 0 0 0 0 1 0
2994 2659 2108 2040 1323 1340 1108 955 504 246 238 0 0 0 0 0 0 0 0 0 0 0 0 0 0 0 0 0 0 0 0 0 0 0 0 0 0 0 0 0 0 3 0
2483 2115 1967 1893 1347 1091 906 1082 770 628 521 23 0 0 0 0 0 0 0 0 0 0 0 0 0 0 0 0 0 0 0 0 0 0 0 0 0 0 0 0 0 0 0
1481 1653 1653 1628 1154 1285 1042 1043 660 331 189 4 0 0 0 0 0 0 0 0 0 0 0 0 0 0 0 0 0 0 0 0 0 0 0 0 0 0 0 0 0 4 9
535 1398 1399 1272 840 1052 806 706 497 263 63 0 0 0 0 0 0 0 0 0 0 0 0 0 0 0 0 0 0 0 0 0 0 0 0 0 0 0 0 0 0 1 14
50 388 719 723 645 1123 1313 448 615 135 19 0 0 0 0 0 0 0 0 0 0 0 0 0 0 0 0 0 0 0 0 0 0 0 0 0 0 0 0 0 0 0 11
CIN
-62 -53 -69 -104 -132 -93 -80 -48 -25 -9 -4 -1 -1 -37 -44 -76 -55 -40 -124 -310 -0 -0 -0 -0 -0 -0 -0 -0 -0 -1 -0 -0 -0 -0 -0 -0 -0 -32 -0 -0 -0 -0 -0
-70 -62 -110 -134 -153 -127 -96 -97 -79 -36 -10 -1 -2 -47 -83 -86 -71 -65 -107 -479 -0 -0 -0 -0 -0 -0 -0 -7 -0 -1 -1 -0 -0 -0 -0 -0 -0 -0 -0 -0 -0 -0 -0
-77 -77 -117 -138 -157 -159 -137 -124 -78 -38 -18 -7 -16 -42 -79 -86 -88 -95 -256 -0 -0 -0 -0 -0 -0 -0 -2 -0 -0 -0 -0 -0 -0 -0 -0 -0 -0 -0 -0 -0 -0 -0 -0
-121 -123 -119 -198 -200 -180 -136 -116 -74 -18 -27 -27 -50 -77 -94 -114 -148 -201 -469 -0 -0 -0 -0 -0 -0 -0 -0 -0 -0 -0 -0 -0 -0 -0 -0 -0 -0 -0 -0 -0 -0 -0 -0
-154 -164 -206 -197 -180 -164 -130 -105 -57 -58 -65 -86 -114 -173 -147 -187 -320 -328 -515 -0 -0 -0 -0 -0 -0 -0 -0 -0 -0 -0 -0 -0 -0 -0 -0 -0 -0 -0 -0 -0 -0 -0 -0
-188 -227 -219 -189 -180 -165 -114 -129 -50 -86 -228 -149 -200 -198 -257 -362 -0 -0 -563 -0 -0 -0 -0 -0 -0 -0 -0 -0 -0 -0 -0 -0 -0 -0 -0 -0 -0 -0 -0 -0 -0 -0 -0
-210 -240 -218 -186 -197 -163 -153 -89 -107 -115 -130 -92 -169 -249 -414 -575 -0 -0 -0 -580 -0 -0 -0 -0 -0 -0 -0 -0 -0 -0 -0 -0 -0 -0 -0 -0 -0 -0 -0 -0 -0 -0 -0
-220 -229 -224 -208 -201 -160 -146 -109 -115 -111 -127 -135 -238 -334 -481 -758 -0 -0 -0 -0 -0 -0 -0 -0 -0 -0 -0 -0 -0 -0 -0 -0 -0 -0 -0 -0 -0 -0 -0 -0 -0 -0 -0
-253 -240 -257 -243 -197 -176 -168 -167 -142 -80 -133 -207 -353 -433 -562 -0 -0 -0 -0 -0 -0 -0 -0 -0 -0 -0 -0 -0 -0 -0 -0 -0 -0 -0 -0 -0 -0 -0 -0 -0 -0 -0 -0
-292 -334 -293 -266 -226 -224 -193 -191 -141 -99 -199 -367 -442 -555 -788 -0 -0 -0 -0 -0 -0 -0 -0 -0 -0 -0 -0 -0 -0 -0 -0 -0 -0 -0 -0 -0 -0 -96 -12 -0 -0 -11 -0
-344 -301 -287 -277 -273 -254 -214 -154 -102 -252 -414 -529 -683 -771 -871 -0 -0 -0 -0 -0 -0 -0 -0 -0 -0 -0 -0 -0 -0 -0 -0 -0 -0 -0 -0 -0 -0 -0 -0 -41 -41 -43 -5
-297 -295 -264 -253 -236 -204 -142 -106 -229 -404 -495 -564 -717 -863 -512 -0 -0 -0 -0 -0 -0 -0 -0 -0 -0 -0 -0 -0 -0 -0 -0 -0 -0 -0 -0 -0 -0 -0 -0 -0 -35 -56 -67
-270 -265 -249 -236 -194 -186 -106 -138 -350 -379 -649 -757 -867 -1017 -0 -0 -0 -0 -0 -0 -0 -0 -0 -0 -0 -0 -0 -0 -0 -0 -0 -0 -0 -0 -0 -0 -0 -0 -0 -0 -0 -0 -6
-248 -227 -246 -199 -170 -172 -110 -258 -370 -525 -743 -914 -1053 -0 -350 -0 -0 -0 -0 -0 -0 -0 -0 -0 -0 -0 -0 -0 -0 -0 -0 -0 -0 -0 -0 -0 -0 -0 -0 -0 -0 -0 -8
-190 -209 -214 -183 -232 -180 -160 -328 -401 -589 -853 -886 -975 -696 -983 -0 -0 -0 -0 -0 -0 -0 -0 -0 -0 -0 -0 -0 -0 -0 -0 -0 -0 -0 -0 -0 -0 -0 -0 -0 -37 -0 -0
-171 -201 -213 -194 -226 -208 -363 -912 -0 -928 -933 -1093 -1089 -910 -986 -1027 -0 -0 -0 -0 -0 -0 -0 -0 -0 -0 -0 -0 -0 -0 -0 -0 -0 -0 -0 -0 -0 -0 -0 -0 -11 -43 -0
-211 -213 -207 -244 -226 -450 -513 -632 -669 -0 -0 -0 -0 -33 -31 -0 -0 -0 -0 -0 -0 -0 -0 -0 -0 -0 -0 -0 -0 -0 -0 -0 -0 -0 -0 -0 -0 -0 -0 -0 -0 -44 -0
-189 -250 -191 -259 -209 -511 -504 -553 -661 -1349 -276 -0 -0 -0 -0 -0 -0 -0 -0 -0 -0 -0 -0 -0 -0 -0 -0 -0 -0 -0 -0 -0 -0 -0 -0 -0 -0 -0 -0 -0 -0 -0 -2
-140 -182 -196 -211 -273 -467 -401 -595 -864 -859 -818 -1 -0 -0 -0 -0 -0 -0 -0 -0 -0 -0 -0 -0 -0 -0 -0 -0 -0 -0 -0 -0 -0 -0 -0 -0 -0 -0 -0 -0 -0 -0 -6
-136 -189 -187 -175 -334 -461 -425 -586 -751 -771 -806 -0 -0 -0 -0 -0 -0 -0 -0 -0 -0 -0 -0 -0 -0 -0 -0 -0 -0 -0 -0 -0 -0 -0 -0 -0 -0 -0 -0 -0 -0 -0 -31
-122 -146 -192 -178 -297 -420 -458 -594 -556 -795 -1001 -0 -0 -0 -0 -0 -0 -0 -0 -0 -0 -0 -0 -0 -0 -0 -0 -0 -0 -0 -0 -0 -0 -0 -0 -0 -0 -0 -0 -0 -0 -33 -0
-87 -91 -170 -162 -378 -403 -446 -468 -521 -652 -581 -0 -0 -0 -0 -0 -0 -0 -0 -0 -0 -0 -0 -0 -0 -0 -0 -0 -0 -0 -0 -0 -0 -0 -0 -0 -0 -0 -0 -0 -0 -27 -0
-61 -72 -135 -126 -252 -355 -388 -303 -370 -418 -410 -777 -0 -0 -0 -0 -0 -0 -0 -0 -0 -0 -0 -0 -0 -0 -0 -0 -0 -0 -0 -0 -0 -0 -0 -0 -0 -0 -0 -0 -0 -0 -0
-183 -74 -114 -114 -184 -194 -264 -239 -335 -440 -536 -735 -0 -0 -0 -0 -0 -0 -0 -0 -0 -0 -0 -0 -0 -0 -0 -0 -0 -0 -0 -0 -0 -0 -0 -0 -0 -0 -0 -0 -0 -11 -9
-449 -112 -110 -85 -170 -153 -244 -238 -304 -440 -621 -0 -0 -0 -0 -0 -0 -0 -0 -0 -0 -0 -0 -0 -0 -0 -0 -0 -0 -0 -0 -0 -0 -0 -0 -0 -0 -0 -0 -0 -0 -7 -6
-676 -503 -343 -204 -245 -175 -103 -251 -236 -438 -608 -0 -0 -0 -0 -0 -0 -0 -0 -0 -0 -0 -0 -0 -0 -0 -0 -0 -0 -0 -0 -0 -0 -0 -0 -0 -0 -0 -0 -0 -0 -0 -5
Wind_Speed
16 14 13 13 12 11 10 8 6 5 4 4 5 7 7 6 4 3 1 4 4 3 1 3 2 2 3 4 4 3 4 3 4 4 5 5 6 4 3 4 6 7 5
15 13 14 13 13 13 11 11 9 8 7 6 5 7 6 6 5 4 5 4 5 5 4 1 3 3 3 3 4 4 4 4 3 6 4 5 6 4 4 6 5 7 7
15 14 15 14 14 14 13 12 9 8 6 7 7 6 7 6 6 4 2 2 2 3 4 2 1 2 3 4 4 4 4 4 5 4 6 3 3 4 6 6 6 8 8
16 16 15 16 15 14 12 12 9 7 8 8 9 8 7 6 5 5 4 2 3 4 3 1 2 4 4 4 4 5 5 5 5 5 5 4 3 5 5 6 8 7 8
17 17 17 15 14 13 12 10 10 10 10 10 11 9 8 7 7 6 5 5 4 5 4 4 6 5 5 2 2 3 4 3 4 4 4 4 5 7 7 6 7 8 9
17 18 15 15 13 13 11 12 11 13 16 12 12 11 10 7 6 12 6 5 6 5 5 4 7 8 7 9 7 7 9 4 5 3 3 4 4 6 5 5 6 7 7
16 16 15 14 15 14 13 12 14 13 9 10 11 11 9 6 6 10 8 3 5 5 5 4 4 6 2 5 6 9 11 13 14 3 4 5 6 5 6 7 6 6 9
15 16 15 16 16 15 14 14 14 13 12 11 10 10 10 7 10 9 8 3 3 4 4 4 2 7 5 4 5 6 6 6 3 5 6 7 7 8 6 4 7 10 8
17 17 17 17 16 16 16 16 14 13 12 12 11 11 10 8 11 10 8 6 6 5 4 3 3 7 6 5 4 6 6 5 6 11 11 14 15 17 17 2 7 7 9
19 20 18 17 17 18 17 17 14 12 12 11 11 10 10 9 11 11 9 6 8 6 5 6 5 5 7 4 2 5 5 5 6 9 11 12 12 10 15 5 5 6 7
17 16 17 18 18 18 16 14 13 13 12 12 11 10 10 10 11 13 11 5 4 6 7 8 6 11 9 6 5 5 5 5 9 8 9 4 5 5 3 3 5 4 6
16 16 16 16 14 13 16 14 14 15 14 12 11 8 6 8 11 12 11 9 3 3 6 5 8 12 10 9 6 11 8 6 6 6 4 4 3 4 4 5 5 6 6
15 16 15 16 15 14 16 15 13 14 12 11 10 9 9 9 7 13 11 9 7 3 4 9 14 11 10 7 12 13 8 5 3 4 3 4 3 4 5 5 7 8 7
15 15 15 16 16 14 13 13 13 12 12 12 12 12 10 10 10 8 8 6 6 5 8 6 7 7 8 6 3 7 5 5 2 3 4 4 4 4 4 4 7 4 4
14 14 15 14 16 14 13 12 13 13 13 13 12 13 14 12 12 12 11 9 7 7 7 4 3 4 6 7 6 3 3 1 2 3 4 4 3 4 3 6 4 5 5
14 14 14 13 14 11 13 7 10 11 16 15 14 13 11 14 21 20 13 13 12 13 5 5 7 7 5 1 1 1 2 2 3 3 4 4 3 4 4 6 4 3 6
16 15 13 14 14 12 12 13 12 5 9 9 9 8 5 13 25 21 15 13 13 11 5 5 5 4 3 2 2 1 1 3 1 2 3 4 4 4 7 5 5 4 4
16 15 14 14 12 13 12 12 10 10 12 7 7 8 17 18 23 22 20 14 5 2 5 6 5 4 3 3 2 1 3 3 4 3 4 3 4 5 5 5 5 4 5
13 12 14 12 11 13 12 12 11 11 10 8 6 9 11 13 20 20 18 9 8 7 7 7 4 5 4 4 3 3 3 2 1 3 2 3 3 4 4 4 5 7 7
13 14 13 11 11 13 12 13 13 13 13 12 7 8 10 10 11 11 9 9 9 8 8 8 5 5 4 3 4 3 3 3 2 0 2 3 4 4 4 4 5 5 6
10 10 14 10 11 12 10 13 12 12 16 16 14 15 17 12 11 11 10 9 7 9 8 6 8 6 5 4 3 4 4 3 4 3 2 3 2 3 4 4 4 5 5
9 10 12 11 10 11 10 10 8 9 11 12 12 15 22 10 10 11 10 10 9 7 5 6 6 8 6 7 5 3 2 2 4 3 4 5 3 4 4 5 5 4 6
10 9 11 10 12 12 11 11 11 12 10 10 10 13 13 10 10 11 11 10 10 7 5 6 5 7 6 6 4 3 1 5 4 3 4 4 4 5 3 4 7 5 7
10 7 10 9 9 10 10 9 9 10 10 11 10 12 11 11 10 12 11 11 10 8 7 6 4 9 9 6 5 4 6 5 4 5 5 6 4 7 6 4 7 6 6
11 4 5 5 6 6 8 8 9 11 10 10 12 12 11 11 9 11 11 10 9 9 9 8 4 12 11 8 11 11 7 8 7 2 4 5 5 7 7 3 6 6 7
10 9 6 3 6 5 6 3 5 7 8 10 11 12 11 10 9 8 9 9 9 9 11 7 10 13 12 9 14 12 7 6 5 6 3 4 3 5 5 6 7 5 7
Wind_Direction
189 190 192 192 199 206 219 233 214 222 232 217 217 138 140 155 183 192 133 165 126 130 199 75 43 321 11 350 346 15 334 35 307 319 303 304 310 277 331 297 296 283 298
185 188 190 187 196 202 210 216 214 212 206 206 181 150 148 165 190 211 220 129 176 196 135 78 51 10 351 27 343 10 308 327 350 304 295 313 283 325 2 325 317 333 311
181 190 188 190 195 203 203 212 212 202 201 212 159 163 157 179 183 214 241 193 174 105 103 142 93 18 20 21 343 347 8 350 313 302 302 310 324 33 343 336 351 322 327
182 188 193 196 197 200 205 200 201 189 193 201 173 166 178 172 182 182 180 203 144 123 119 84 91 61 47 13 315 19 11 323 327 333 331 330 353 354 348 343 338 337 326
183 190 197 198 195 200 197 201 180 193 198 181 173 169 169 183 195 172 172 176 182 161 155 203 118 139 176 224 329 8 301 330 331 338 323 321 348 357 328 340 332 314 325
186 195 194 195 195 196 199 191 183 190 210 169 177 168 168 182 154 141 174 174 180 186 176 198 172 172 212 220 234 264 270 273 279 290 302 320 312 317 329 327 314 326 326
190 193 194 192 195 196 196 187 193 193 190 183 176 167 162 168 152 129 135 215 174 193 185 189 262 138 92 48 1 317 281 242 237 252 281 288 293 287 292 302 299 300 293
194 194 193 194 194 192 193 197 195 194 184 177 173 169 172 160 155 155 156 232 193 168 185 188 189 101 73 45 339 302 322 319 31 214 248 268 261 268 261 266 294 296 296
202 198 196 195 192 190 194 197 196 190 183 177 169 175 176 155 159 167 160 186 181 187 190 70 70 107 105 68 324 317 310 334 335 326 294 272 269 266 262 310 291 309 321
203 204 195 194 192 193 192 195 195 184 179 169 167 174 178 156 172 186 183 203 169 188 168 142 145 117 143 124 315 308 313 311 324 311 302 293 279 261 261 194 252 278 305
207 200 199 195 194 193 191 191 185 169 168 168 166 172 180 165 186 200 196 229 198 192 187 173 166 158 170 186 220 263 270 305 295 282 278 285 2 1 35 224 246 265 284
199 204 199 196 194 190 188 186 167 170 172 168 163 170 176 178 178 201 201 227 334 270 216 122 136 163 189 205 220 249 266 290 274 284 326 348 350 338 317 299 294 287 278
197 199 196 192 192 189 184 174 170 174 162 161 174 176 185 175 184 179 179 195 239 287 30 126 142 175 205 221 238 255 274 280 324 325 341 327 317 309 321 322 324 298 307
202 195 189 189 188 187 183 172 173 174 165 170 181 194 182 176 176 182 188 198 204 151 125 138 169 190 225 273 258 222 235 249 294 290 330 307 321 335 323 342 317 320 321
199 194 192 189 185 184 180 180 182 182 173 176 186 187 186 182 184 172 177 178 179 179 165 150 180 214 228 231 240 201 218 188 335 15 307 316 330 333 329 324 308 326 350
198 195 192 186 183 176 169 149 47 180 174 184 178 184 181 165 149 158 179 169 170 164 183 201 204 221 209 191 136 250 256 112 63 321 318 332 336 336 325 314 330 354 332
200 195 191 193 184 171 174 175 177 34 61 128 173 173 186 152 149 153 152 140 151 141 188 221 235 192 177 157 154 235 20 90 223 309 339 330 342 335 321 322 326 354 327
202 196 196 195 179 169 177 181 178 172 173 158 70 149 136 143 138 139 136 120 142 154 190 232 205 167 151 162 178 134 69 4 51 4 303 353 347 323 319 326 330 333 333
200 200 197 189 165 174 172 170 167 177 172 152 124 84 109 123 138 143 151 163 173 186 197 236 218 142 160 152 137 113 104 272 159 258 318 3 324 310 315 322 334 344 6
212 217 189 186 162 178 176 170 169 177 174 149 167 146 142 140 158 163 173 175 184 189 199 210 155 141 137 116 126 147 212 210 189 236 33 334 307 322 316 351 342 358 37
217 206 185 189 170 181 172 176 182 185 180 159 169 161 165 171 166 168 178 188 210 200 200 174 146 141 132 142 177 185 216 224 99 54 2 302 314 350 324 7 344 14 39
214 210 184 198 153 181 177 182 168 172 198 160 173 149 164 186 172 172 181 187 205 227 162 142 156 150 178 181 159 191 185 116 80 30 332 312 27 9 352 9 339 16 48
221 197 175 205 162 171 173 184 171 181 180 165 169 148 167 193 178 176 183 186 194 203 144 145 178 150 120 115 126 149 264 96 97 73 326 344 19 355 356 25 348 3 86
312 171 178 205 159 173 170 178 158 168 164 175 142 153 169 196 186 186 179 183 182 158 143 145 194 143 128 137 141 181 84 63 32 38 20 336 63 356 344 38 349 2 21
334 146 165 170 157 166 157 164 164 162 166 169 145 160 175 189 219 174 182 177 153 152 148 156 166 128 137 156 105 106 105 86 77 31 8 357 44 38 341 20 359 1 24
20 19 37 64 138 122 115 147 136 172 171 173 155 161 170 180 210 186 169 155 151 155 151 165 144 140 147 115 107 112 114 104 92 67 9 333 30 67 343 349 12 12 10